"Sample Date","Sample Time","Sensor Name","Sample Value","Units","Flow Rate","Sample Interval","Sample Volume","Laser Status","Number Channels","Micron Size 0","Counts/Channel 0","Micron Size 1","Counts/Channel 1","Micron Size 2","Counts/Channel 2","Micron Size 3","Counts/Channel 3","Micron Size 4","Counts/Channel 4","Micron Size 5","Counts/Channel 5","Micron Size 6","Counts/Channel 6","Micron Size 7","Counts/Channel 7","Micron Size 8","Counts/Channel 8","Micron Size 9","Counts/Channel 9","Micron Size 10","Counts/Channel 10","Micron Size 11","Counts/Channel 11","Micron Size 12","Counts/Channel 12","Micron Size 13","Counts/Channel 13","Micron Size 14","Counts/Channel 14","Micron Size 15","Counts/Channel 15","Micron Size 16","Counts/Channel 16","Micron Size 17","Counts/Channel 17","Micron Size 18","Counts/Channel 18","Micron Size 19","Counts/Channel 19","Micron Size 20","Counts/Channel 20","Micron Size 21","Counts/Channel 21","Micron Size 22","Counts/Channel 22","Micron Size 23","Counts/Channel 23","Micron Size 24","Counts/Channel 24","Micron Size 25","Counts/Channel 25","Micron Size 26","Counts/Channel 26","Micron Size 27","Counts/Channel 27","Micron Size 28","Counts/Channel 28","Micron Size 29","Counts/Channel 29","Micron Size 30","Counts/Channel 30","Micron Size 31","Counts/Channel 31"
"07/02/06","03:00:03","AMMA06",60509.000,"cc",28306.566,6.00,2830.657,1,6,0.100,28350.000,0.200,25087.000,0.300,4889.000,0.500,1298.000,1.000,885.000,5.000,0
"07/02/06","03:00:09","AMMA06",60575.000,"cc",28355.717,6.00,2835.572,1,6,0.100,28558.000,0.200,24923.000,0.300,4885.000,0.500,1286.000,1.000,922.000,5.000,1.000
"07/02/06","03:00:15","AMMA06",60393.000,"cc",28296.930,6.00,2829.693,1,6,0.100,28381.000,0.200,24915.000,0.300,4874.000,0.500,1301.000,1.000,921.000,5.000,1.000
"07/02/06","03:00:21","AMMA06",60892.000,"cc",28286.971,6.00,2828.697,1,6,0.100,29018.000,0.200,24754.000,0.300,4873.000,0.500,1316.000,1.000,930.000,5.000,1.000
"07/02/06","03:00:27","AMMA06",60190.000,"cc",28336.729,6.00,2833.673,1,6,0.100,28322.000,0.200,24769.000,0.300,4995.000,0.500,1209.000,1.000,895.000,5.000,0
"07/02/06","03:00:33","AMMA06",60354.000,"cc",28365.008,6.00,2836.501,1,6,0.100,28575.000,0.200,24658.000,0.300,4954.000,0.500,1251.000,1.000,916.000,5.000,0
"07/02/06","03:00:39","AMMA06",60730.000,"cc",28280.260,6.00,2828.026,1,6,0.100,28654.000,0.200,25054.000,0.300,4863.000,0.500,1314.000,1.000,844.000,5.000,1.000
"07/02/06","03:00:45","AMMA06",60563.000,"cc",28292.811,6.00,2829.281,1,6,0.100,28730.000,0.200,24794.000,0.300,4885.000,0.500,1300.000,1.000,854.000,5.000,0
"07/02/06","03:00:51","AMMA06",60422.000,"cc",28326.658,6.00,2832.666,1,6,0.100,28410.000,0.200,24974.000,0.300,4857.000,0.500,1300.000,1.000,880.000,5.000,1.000
"07/02/06","03:00:57","AMMA06",60352.000,"cc",28398.766,6.00,2839.877,1,6,0.100,28356.000,0.200,24882.000,0.300,4876.000,0.500,1332.000,1.000,905.000,5.000,1.000
"07/02/06","03:01:03","AMMA06",60479.000,"cc",28271.826,6.00,2827.183,1,6,0.100,28711.000,0.200,24790.000,0.300,4834.000,0.500,1290.000,1.000,852.000,5.000,2.000
"07/02/06","03:01:09","AMMA06",60825.000,"cc",28274.752,6.00,2827.475,1,6,0.100,28675.000,0.200,25146.000,0.300,4796.000,0.500,1297.000,1.000,911.000,5.000,0
"07/02/06","03:01:15","AMMA06",60332.000,"cc",28327.315,6.00,2832.732,1,6,0.100,28630.000,0.200,24767.000,0.300,4761.000,0.500,1279.000,1.000,895.000,5.000,0
"07/02/06","03:01:21","AMMA06",60738.000,"cc",28322.158,6.00,2832.216,1,6,0.100,28567.000,0.200,25028.000,0.300,4929.000,0.500,1293.000,1.000,919.000,5.000,2.000
"07/02/06","03:01:27","AMMA06",60627.000,"cc",28281.059,6.00,2828.106,1,6,0.100,28610.000,0.200,25073.000,0.300,4750.000,0.500,1273.000,1.000,919.000,5.000,2.000
"07/02/06","03:01:33","AMMA06",60734.000,"cc",28321.363,6.00,2832.137,1,6,0.100,28661.000,0.200,24925.000,0.300,4933.000,0.500,1306.000,1.000,908.000,5.000,1.000
"07/02/06","03:01:39","AMMA06",60516.000,"cc",28339.529,6.00,2833.953,1,6,0.100,28571.000,0.200,24828.000,0.300,4923.000,0.500,1298.000,1.000,896.000,5.000,0
"07/02/06","03:01:45","AMMA06",60828.000,"cc",28349.092,6.00,2834.909,1,6,0.100,28670.000,0.200,24947.000,0.300,5001.000,0.500,1330.000,1.000,880.000,5.000,0
"07/02/06","03:01:51","AMMA06",60653.000,"cc",28264.752,6.00,2826.475,1,6,0.100,28685.000,0.200,24934.000,0.300,4814.000,0.500,1324.000,1.000,893.000,5.000,3.000
"07/02/06","03:01:57","AMMA06",60983.000,"cc",28327.811,6.00,2832.781,1,6,0.100,28866.000,0.200,24995.000,0.300,4868.000,0.500,1356.000,1.000,897.000,5.000,1.000
"07/02/06","03:02:03","AMMA06",60373.000,"cc",28308.891,6.00,2830.889,1,6,0.100,28560.000,0.200,24838.000,0.300,4807.000,0.500,1285.000,1.000,883.000,5.000,0
"07/02/06","03:02:09","AMMA06",60202.000,"cc",28327.684,6.00,2832.769,1,6,0.100,28572.000,0.200,24650.000,0.300,4864.000,0.500,1269.000,1.000,845.000,5.000,2.000
"07/02/06","03:02:15","AMMA06",60435.000,"cc",28313.758,6.00,2831.376,1,6,0.100,28825.000,0.200,24803.000,0.300,4708.000,0.500,1228.000,1.000,870.000,5.000,1.000
"07/02/06","03:02:21","AMMA06",60041.000,"cc",28298.484,6.00,2829.849,1,6,0.100,28682.000,0.200,24492.000,0.300,4729.000,0.500,1286.000,1.000,851.000,5.000,1.000
"07/02/06","03:02:27","AMMA06",60889.000,"cc",28303.094,6.00,2830.310,1,6,0.100,29297.000,0.200,24518.000,0.300,4831.000,0.500,1373.000,1.000,868.000,5.000,2.000
"07/02/06","03:02:33","AMMA06",60847.000,"cc",28274.541,6.00,2827.454,1,6,0.100,28937.000,0.200,24973.000,0.300,4728.000,0.500,1322.000,1.000,885.000,5.000,2.000
"07/02/06","03:02:39","AMMA06",60253.000,"cc",28328.647,6.00,2832.865,1,6,0.100,28854.000,0.200,24532.000,0.300,4683.000,0.500,1322.000,1.000,861.000,5.000,1.000
"07/02/06","03:02:45","AMMA06",60351.000,"cc",28302.104,6.00,2830.210,1,6,0.100,28739.000,0.200,24828.000,0.300,4590.000,0.500,1346.000,1.000,848.000,5.000,0
"07/02/06","03:02:51","AMMA06",61330.000,"cc",28318.510,6.00,2831.851,1,6,0.100,29390.000,0.200,25042.000,0.300,4732.000,0.500,1336.000,1.000,828.000,5.000,2.000
"07/02/06","03:02:57","AMMA06",60447.000,"cc",28369.481,6.00,2836.948,1,6,0.100,28988.000,0.200,24601.000,0.300,4704.000,0.500,1295.000,1.000,859.000,5.000,0
"07/02/06","03:03:03","AMMA06",60487.000,"cc",28320.356,6.00,2832.036,1,6,0.100,29147.000,0.200,24536.000,0.300,4627.000,0.500,1246.000,1.000,931.000,5.000,0
"07/02/06","03:03:09","AMMA06",60017.000,"cc",28330.789,6.00,2833.079,1,6,0.100,28628.000,0.200,24532.000,0.300,4661.000,0.500,1313.000,1.000,882.000,5.000,1.000
"07/02/06","03:03:15","AMMA06",59608.000,"cc",28287.510,6.00,2828.751,1,6,0.100,28452.000,0.200,24382.000,0.300,4645.000,0.500,1297.000,1.000,830.000,5.000,2.000
"07/02/06","03:03:21","AMMA06",59915.000,"cc",28322.010,6.00,2832.201,1,6,0.100,28718.000,0.200,24437.000,0.300,4691.000,0.500,1255.000,1.000,814.000,5.000,0
"07/02/06","03:03:27","AMMA06",60335.000,"cc",28349.430,6.00,2834.943,1,6,0.100,28690.000,0.200,24769.000,0.300,4685.000,0.500,1322.000,1.000,867.000,5.000,2.000
"07/02/06","03:03:33","AMMA06",60365.000,"cc",28294.590,6.00,2829.459,1,6,0.100,28767.000,0.200,24742.000,0.300,4730.000,0.500,1258.000,1.000,867.000,5.000,1.000
"07/02/06","03:03:39","AMMA06",59895.000,"cc",28343.631,6.00,2834.363,1,6,0.100,28454.000,0.200,24721.000,0.300,4567.000,0.500,1314.000,1.000,838.000,5.000,1.000
"07/02/06","03:03:45","AMMA06",59862.000,"cc",28317.191,6.00,2831.719,1,6,0.100,28770.000,0.200,24350.000,0.300,4564.000,0.500,1341.000,1.000,835.000,5.000,2.000
"07/02/06","03:03:51","AMMA06",60433.000,"cc",28269.682,6.00,2826.968,1,6,0.100,28786.000,0.200,24833.000,0.300,4731.000,0.500,1228.000,1.000,854.000,5.000,1.000
"07/02/06","03:03:57","AMMA06",60706.000,"cc",28334.854,6.00,2833.486,1,6,0.100,28488.000,0.200,25280.000,0.300,4777.000,0.500,1286.000,1.000,875.000,5.000,0
"07/02/06","03:04:03","AMMA06",60505.000,"cc",28308.893,6.00,2830.889,1,6,0.100,28693.000,0.200,24856.000,0.300,4769.000,0.500,1350.000,1.000,835.000,5.000,2.000
"07/02/06","03:04:09","AMMA06",60481.000,"cc",28296.488,6.00,2829.649,1,6,0.100,28648.000,0.200,24704.000,0.300,4898.000,0.500,1341.000,1.000,889.000,5.000,1.000
"07/02/06","03:04:15","AMMA06",60413.000,"cc",28347.604,6.00,2834.761,1,6,0.100,28737.000,0.200,24698.000,0.300,4807.000,0.500,1304.000,1.000,866.000,5.000,1.000
"07/02/06","03:04:21","AMMA06",60410.000,"cc",28271.102,6.00,2827.110,1,6,0.100,28666.000,0.200,24700.000,0.300,4840.000,0.500,1288.000,1.000,916.000,5.000,0
"07/02/06","03:04:27","AMMA06",60596.000,"cc",28332.061,6.00,2833.206,1,6,0.100,28745.000,0.200,24885.000,0.300,4876.000,0.500,1261.000,1.000,829.000,5.000,0
"07/02/06","03:04:33","AMMA06",60385.000,"cc",28356.117,6.00,2835.612,1,6,0.100,28172.000,0.200,25007.000,0.300,5050.000,0.500,1269.000,1.000,886.000,5.000,1.000
"07/02/06","03:04:39","AMMA06",60391.000,"cc",28277.621,6.00,2827.762,1,6,0.100,28453.000,0.200,24732.000,0.300,4983.000,0.500,1308.000,1.000,915.000,5.000,0
"07/02/06","03:04:45","AMMA06",60596.000,"cc",28315.943,6.00,2831.595,1,6,0.100,28560.000,0.200,25048.000,0.300,4865.000,0.500,1288.000,1.000,835.000,5.000,0
"07/02/06","03:04:51","AMMA06",60398.000,"cc",28325.633,6.00,2832.564,1,6,0.100,28318.000,0.200,24902.000,0.300,4967.000,0.500,1275.000,1.000,936.000,5.000,0
"07/02/06","03:04:57","AMMA06",60636.000,"cc",28370.000,6.00,2837.000,1,6,0.100,28162.000,0.200,25138.000,0.300,5077.000,0.500,1345.000,1.000,913.000,5.000,1.000
"07/02/06","03:05:03","AMMA06",60579.000,"cc",28286.238,6.00,2828.624,1,6,0.100,28293.000,0.200,25216.000,0.300,4872.000,0.500,1272.000,1.000,926.000,5.000,0
"07/02/06","03:05:09","AMMA06",61020.000,"cc",28387.508,6.00,2838.751,1,6,0.100,28622.000,0.200,25069.000,0.300,5112.000,0.500,1308.000,1.000,909.000,5.000,0
"07/02/06","03:05:15","AMMA06",59945.000,"cc",28377.232,6.00,2837.723,1,6,0.100,27725.000,0.200,25126.000,0.300,4893.000,0.500,1307.000,1.000,893.000,5.000,1.000
"07/02/06","03:05:21","AMMA06",60212.000,"cc",28245.684,6.00,2824.569,1,6,0.100,27972.000,0.200,25111.000,0.300,4904.000,0.500,1278.000,1.000,947.000,5.000,0
"07/02/06","03:05:27","AMMA06",60404.000,"cc",28305.701,6.00,2830.570,1,6,0.100,28325.000,0.200,24963.000,0.300,4950.000,0.500,1260.000,1.000,905.000,5.000,1.000
"07/02/06","03:05:33","AMMA06",60802.000,"cc",28317.584,6.00,2831.759,1,6,0.100,28467.000,0.200,25131.000,0.300,5012.000,0.500,1280.000,1.000,909.000,5.000,3.000
"07/02/06","03:05:39","AMMA06",60121.000,"cc",28299.031,6.00,2829.903,1,6,0.100,28358.000,0.200,24663.000,0.300,4905.000,0.500,1290.000,1.000,904.000,5.000,1.000
"07/02/06","03:05:45","AMMA06",60686.000,"cc",28286.832,6.00,2828.683,1,6,0.100,28356.000,0.200,25078.000,0.300,5023.000,0.500,1283.000,1.000,946.000,5.000,0
"07/02/06","03:05:51","AMMA06",60455.000,"cc",28324.760,6.00,2832.476,1,6,0.100,28298.000,0.200,25015.000,0.300,4989.000,0.500,1255.000,1.000,897.000,5.000,1.000
"07/02/06","03:05:57","AMMA06",60065.000,"cc",28275.232,6.00,2827.523,1,6,0.100,28010.000,0.200,24939.000,0.300,4911.000,0.500,1293.000,1.000,912.000,5.000,0
"07/02/06","03:06:03","AMMA06",60812.000,"cc",28296.141,6.00,2829.614,1,6,0.100,28387.000,0.200,25097.000,0.300,5152.000,0.500,1288.000,1.000,885.000,5.000,3.000
"07/02/06","03:06:09","AMMA06",60184.000,"cc",28318.963,6.00,2831.897,1,6,0.100,28189.000,0.200,24858.000,0.300,4997.000,0.500,1254.000,1.000,886.000,5.000,0
"07/02/06","03:06:15","AMMA06",60426.000,"cc",28309.100,6.00,2830.910,1,6,0.100,28333.000,0.200,25036.000,0.300,4936.000,0.500,1290.000,1.000,830.000,5.000,1.000
"07/02/06","03:06:21","AMMA06",60525.000,"cc",28337.713,6.00,2833.772,1,6,0.100,27948.000,0.200,25321.000,0.300,5043.000,0.500,1302.000,1.000,911.000,5.000,0
"07/02/06","03:06:27","AMMA06",60273.000,"cc",28350.857,6.00,2835.086,1,6,0.100,28335.000,0.200,24882.000,0.300,4902.000,0.500,1257.000,1.000,897.000,5.000,0
"07/02/06","03:06:33","AMMA06",60619.000,"cc",28315.963,6.00,2831.596,1,6,0.100,28387.000,0.200,25085.000,0.300,4954.000,0.500,1312.000,1.000,881.000,5.000,0
"07/02/06","03:06:39","AMMA06",60300.000,"cc",28272.391,6.00,2827.239,1,6,0.100,28311.000,0.200,24956.000,0.300,4839.000,0.500,1298.000,1.000,896.000,5.000,0
"07/02/06","03:06:45","AMMA06",60883.000,"cc",28337.084,6.00,2833.709,1,6,0.100,28628.000,0.200,25092.000,0.300,4984.000,0.500,1269.000,1.000,906.000,5.000,4.000
"07/02/06","03:06:51","AMMA06",60246.000,"cc",28313.965,6.00,2831.397,1,6,0.100,28223.000,0.200,24971.000,0.300,4888.000,0.500,1222.000,1.000,940.000,5.000,2.000
"07/02/06","03:06:57","AMMA06",60505.000,"cc",28358.395,6.00,2835.840,1,6,0.100,28452.000,0.200,24956.000,0.300,4881.000,0.500,1280.000,1.000,935.000,5.000,1.000
"07/02/06","03:07:03","AMMA06",60140.000,"cc",28318.584,6.00,2831.859,1,6,0.100,28307.000,0.200,24736.000,0.300,4899.000,0.500,1249.000,1.000,949.000,5.000,0
"07/02/06","03:07:09","AMMA06",60348.000,"cc",28330.482,6.00,2833.048,1,6,0.100,28356.000,0.200,24949.000,0.300,4869.000,0.500,1301.000,1.000,873.000,5.000,0
"07/02/06","03:07:15","AMMA06",60420.000,"cc",28282.098,6.00,2828.210,1,6,0.100,28578.000,0.200,24794.000,0.300,4861.000,0.500,1273.000,1.000,914.000,5.000,0
"07/02/06","03:07:21","AMMA06",59940.000,"cc",28338.025,6.00,2833.803,1,6,0.100,28279.000,0.200,24749.000,0.300,4829.000,0.500,1250.000,1.000,833.000,5.000,0
"07/02/06","03:07:27","AMMA06",60251.000,"cc",28294.295,6.00,2829.430,1,6,0.100,28457.000,0.200,24817.000,0.300,4771.000,0.500,1281.000,1.000,924.000,5.000,1.000
"07/02/06","03:07:33","AMMA06",59876.000,"cc",28287.139,6.00,2828.714,1,6,0.100,28355.000,0.200,24442.000,0.300,4910.000,0.500,1278.000,1.000,890.000,5.000,1.000
"07/02/06","03:07:39","AMMA06",60562.000,"cc",28335.742,6.00,2833.575,1,6,0.100,28680.000,0.200,24969.000,0.300,4737.000,0.500,1250.000,1.000,924.000,5.000,2.000
"07/02/06","03:07:45","AMMA06",60543.000,"cc",28336.121,6.00,2833.612,1,6,0.100,28928.000,0.200,24751.000,0.300,4708.000,0.500,1263.000,1.000,893.000,5.000,0
"07/02/06","03:07:51","AMMA06",59506.000,"cc",28323.504,6.00,2832.351,1,6,0.100,28078.000,0.200,24531.000,0.300,4763.000,0.500,1358.000,1.000,776.000,5.000,0
"07/02/06","03:07:57","AMMA06",60443.000,"cc",28280.684,6.00,2828.069,1,6,0.100,28673.000,0.200,24914.000,0.300,4744.000,0.500,1271.000,1.000,841.000,5.000,0
"07/02/06","03:08:03","AMMA06",60567.000,"cc",28280.545,6.00,2828.055,1,6,0.100,28814.000,0.200,24843.000,0.300,4742.000,0.500,1295.000,1.000,873.000,5.000,0
"07/02/06","03:08:09","AMMA06",60316.000,"cc",28361.197,6.00,2836.120,1,6,0.100,28837.000,0.200,24526.000,0.300,4830.000,0.500,1260.000,1.000,863.000,5.000,0
"07/02/06","03:08:15","AMMA06",60223.000,"cc",28353.354,6.00,2835.335,1,6,0.100,28790.000,0.200,24539.000,0.300,4751.000,0.500,1265.000,1.000,877.000,5.000,1.000
"07/02/06","03:08:21","AMMA06",60559.000,"cc",28286.973,6.00,2828.698,1,6,0.100,29070.000,0.200,24469.000,0.300,4875.000,0.500,1324.000,1.000,821.000,5.000,0
"07/02/06","03:08:27","AMMA06",60104.000,"cc",28278.414,6.00,2827.842,1,6,0.100,28774.000,0.200,24516.000,0.300,4714.000,0.500,1262.000,1.000,838.000,5.000,0
"07/02/06","03:08:33","AMMA06",60277.000,"cc",28355.049,6.00,2835.505,1,6,0.100,28966.000,0.200,24539.000,0.300,4593.000,0.500,1302.000,1.000,876.000,5.000,1.000
"07/02/06","03:08:39","AMMA06",60406.000,"cc",28322.842,6.00,2832.284,1,6,0.100,29039.000,0.200,24566.000,0.300,4656.000,0.500,1301.000,1.000,843.000,5.000,1.000
"07/02/06","03:08:45","AMMA06",60441.000,"cc",28324.264,6.00,2832.427,1,6,0.100,29186.000,0.200,24528.000,0.300,4647.000,0.500,1251.000,1.000,828.000,5.000,1.000
"07/02/06","03:08:51","AMMA06",60528.000,"cc",28272.236,6.00,2827.224,1,6,0.100,28950.000,0.200,24664.000,0.300,4774.000,0.500,1284.000,1.000,855.000,5.000,1.000
"07/02/06","03:08:57","AMMA06",59949.000,"cc",28318.607,6.00,2831.861,1,6,0.100,28807.000,0.200,24423.000,0.300,4661.000,0.500,1235.000,1.000,822.000,5.000,1.000
"07/02/06","03:09:03","AMMA06",59749.000,"cc",28300.680,6.00,2830.068,1,6,0.100,28614.000,0.200,24352.000,0.300,4613.000,0.500,1276.000,1.000,892.000,5.000,2.000
"07/02/06","03:09:09","AMMA06",60151.000,"cc",28343.397,6.00,2834.340,1,6,0.100,28967.000,0.200,24368.000,0.300,4680.000,0.500,1310.000,1.000,826.000,5.000,0
"07/02/06","03:09:15","AMMA06",60154.000,"cc",28329.783,6.00,2832.979,1,6,0.100,28749.000,0.200,24620.000,0.300,4646.000,0.500,1286.000,1.000,851.000,5.000,2.000
"07/02/06","03:09:21","AMMA06",60024.000,"cc",28334.498,6.00,2833.450,1,6,0.100,28781.000,0.200,24476.000,0.300,4635.000,0.500,1262.000,1.000,870.000,5.000,0
"07/02/06","03:09:27","AMMA06",59906.000,"cc",28333.609,6.00,2833.361,1,6,0.100,28518.000,0.200,24542.000,0.300,4673.000,0.500,1296.000,1.000,876.000,5.000,1.000
"07/02/06","03:09:33","AMMA06",60260.000,"cc",28304.147,6.00,2830.415,1,6,0.100,28880.000,0.200,24639.000,0.300,4585.000,0.500,1272.000,1.000,884.000,5.000,0
"07/02/06","03:09:39","AMMA06",60278.000,"cc",28322.469,6.00,2832.247,1,6,0.100,28782.000,0.200,24617.000,0.300,4721.000,0.500,1318.000,1.000,839.000,5.000,1.000
"07/02/06","03:09:45","AMMA06",60008.000,"cc",28296.422,6.00,2829.642,1,6,0.100,28697.000,0.200,24520.000,0.300,4591.000,0.500,1297.000,1.000,902.000,5.000,1.000
"07/02/06","03:09:51","AMMA06",60000.000,"cc",28297.611,6.00,2829.761,1,6,0.100,28682.000,0.200,24420.000,0.300,4720.000,0.500,1300.000,1.000,877.000,5.000,1.000
"07/02/06","03:09:57","AMMA06",60277.000,"cc",28354.285,6.00,2835.429,1,6,0.100,29144.000,0.200,24336.000,0.300,4741.000,0.500,1244.000,1.000,812.000,5.000,0
"07/02/06","03:10:03","AMMA06",60267.000,"cc",28314.080,6.00,2831.408,1,6,0.100,28893.000,0.200,24577.000,0.300,4669.000,0.500,1282.000,1.000,846.000,5.000,0
"07/02/06","03:10:09","AMMA06",60211.000,"cc",28342.264,6.00,2834.227,1,6,0.100,28753.000,0.200,24679.000,0.300,4700.000,0.500,1223.000,1.000,853.000,5.000,3.000
"07/02/06","03:10:15","AMMA06",60053.000,"cc",28347.611,6.00,2834.761,1,6,0.100,28549.000,0.200,24613.000,0.300,4736.000,0.500,1284.000,1.000,871.000,5.000,0
"07/02/06","03:10:21","AMMA06",60015.000,"cc",28266.981,6.00,2826.698,1,6,0.100,28954.000,0.200,24287.000,0.300,4660.000,0.500,1320.000,1.000,794.000,5.000,0
"07/02/06","03:10:27","AMMA06",60354.000,"cc",28343.004,6.00,2834.301,1,6,0.100,28891.000,0.200,24675.000,0.300,4677.000,0.500,1263.000,1.000,847.000,5.000,1.000
"07/02/06","03:10:33","AMMA06",59966.000,"cc",28315.053,6.00,2831.505,1,6,0.100,28713.000,0.200,24457.000,0.300,4669.000,0.500,1287.000,1.000,839.000,5.000,1.000
"07/02/06","03:10:39","AMMA06",60033.000,"cc",28309.672,6.00,2830.967,1,6,0.100,28623.000,0.200,24533.000,0.300,4744.000,0.500,1297.000,1.000,836.000,5.000,0
"07/02/06","03:10:45","AMMA06",60161.000,"cc",28332.176,6.00,2833.218,1,6,0.100,28773.000,0.200,24598.000,0.300,4675.000,0.500,1262.000,1.000,852.000,5.000,1.000
"07/02/06","03:10:51","AMMA06",60516.000,"cc",28317.516,6.00,2831.752,1,6,0.100,28861.000,0.200,24774.000,0.300,4780.000,0.500,1255.000,1.000,846.000,5.000,0
"07/02/06","03:10:57","AMMA06",60145.000,"cc",28318.291,6.00,2831.829,1,6,0.100,28441.000,0.200,24724.000,0.300,4772.000,0.500,1300.000,1.000,908.000,5.000,0
"07/02/06","03:11:03","AMMA06",60343.000,"cc",28352.000,6.00,2835.200,1,6,0.100,28462.000,0.200,24802.000,0.300,4786.000,0.500,1385.000,1.000,908.000,5.000,0
"07/02/06","03:11:09","AMMA06",60256.000,"cc",28287.754,6.00,2828.776,1,6,0.100,28862.000,0.200,24473.000,0.300,4807.000,0.500,1256.000,1.000,857.000,5.000,1.000
"07/02/06","03:11:15","AMMA06",60673.000,"cc",28265.484,6.00,2826.549,1,6,0.100,28804.000,0.200,24805.000,0.300,4918.000,0.500,1308.000,1.000,838.000,5.000,0
"07/02/06","03:11:21","AMMA06",60313.000,"cc",28332.270,6.00,2833.227,1,6,0.100,28476.000,0.200,24633.000,0.300,4990.000,0.500,1260.000,1.000,954.000,5.000,0
"07/02/06","03:11:27","AMMA06",59997.000,"cc",28335.799,6.00,2833.580,1,6,0.100,28217.000,0.200,24769.000,0.300,4900.000,0.500,1263.000,1.000,848.000,5.000,0
"07/02/06","03:11:33","AMMA06",60318.000,"cc",28297.869,6.00,2829.787,1,6,0.100,28268.000,0.200,24939.000,0.300,4978.000,0.500,1233.000,1.000,900.000,5.000,0
"07/02/06","03:11:39","AMMA06",60685.000,"cc",28342.154,6.00,2834.216,1,6,0.100,28453.000,0.200,25060.000,0.300,4934.000,0.500,1318.000,1.000,919.000,5.000,1.000
"07/02/06","03:11:45","AMMA06",60382.000,"cc",28372.266,6.00,2837.227,1,6,0.100,28132.000,0.200,25054.000,0.300,5071.000,0.500,1264.000,1.000,860.000,5.000,1.000
"07/02/06","03:11:51","AMMA06",60838.000,"cc",28299.031,6.00,2829.903,1,6,0.100,28268.000,0.200,25341.000,0.300,5088.000,0.500,1236.000,1.000,905.000,5.000,0
"07/02/06","03:11:57","AMMA06",60215.000,"cc",28307.723,6.00,2830.773,1,6,0.100,28044.000,0.200,25039.000,0.300,4993.000,0.500,1242.000,1.000,897.000,5.000,0
"07/02/06","03:12:03","AMMA06",60312.000,"cc",28321.861,6.00,2832.186,1,6,0.100,28050.000,0.200,25244.000,0.300,4908.000,0.500,1264.000,1.000,846.000,5.000,0
"07/02/06","03:12:09","AMMA06",60594.000,"cc",28320.045,6.00,2832.005,1,6,0.100,28396.000,0.200,25002.000,0.300,5054.000,0.500,1274.000,1.000,866.000,5.000,2.000
"07/02/06","03:12:15","AMMA06",60509.000,"cc",28282.563,6.00,2828.256,1,6,0.100,28283.000,0.200,25072.000,0.300,5025.000,0.500,1266.000,1.000,862.000,5.000,1.000
"07/02/06","03:12:21","AMMA06",60898.000,"cc",28341.947,6.00,2834.195,1,6,0.100,28424.000,0.200,25289.000,0.300,5005.000,0.500,1293.000,1.000,887.000,5.000,0
"07/02/06","03:12:27","AMMA06",60163.000,"cc",28305.582,6.00,2830.558,1,6,0.100,27901.000,0.200,25155.000,0.300,4959.000,0.500,1247.000,1.000,901.000,5.000,0
"07/02/06","03:12:33","AMMA06",60961.000,"cc",28312.514,6.00,2831.252,1,6,0.100,28389.000,0.200,25190.000,0.300,5086.000,0.500,1341.000,1.000,955.000,5.000,0
"07/02/06","03:12:39","AMMA06",60334.000,"cc",28324.891,6.00,2832.489,1,6,0.100,28157.000,0.200,25025.000,0.300,5032.000,0.500,1240.000,1.000,880.000,5.000,0
"07/02/06","03:12:45","AMMA06",60047.000,"cc",28322.283,6.00,2832.229,1,6,0.100,27945.000,0.200,25148.000,0.300,4861.000,0.500,1249.000,1.000,843.000,5.000,1.000
"07/02/06","03:12:51","AMMA06",60331.000,"cc",28267.928,6.00,2826.793,1,6,0.100,28184.000,0.200,25073.000,0.300,4928.000,0.500,1225.000,1.000,921.000,5.000,0
"07/02/06","03:12:57","AMMA06",60098.000,"cc",28270.818,6.00,2827.082,1,6,0.100,27894.000,0.200,24909.000,0.300,5040.000,0.500,1325.000,1.000,930.000,5.000,0
"07/02/06","03:13:03","AMMA06",60441.000,"cc",28353.397,6.00,2835.340,1,6,0.100,28188.000,0.200,25172.000,0.300,4939.000,0.500,1247.000,1.000,895.000,5.000,0
"07/02/06","03:13:09","AMMA06",60343.000,"cc",28349.227,6.00,2834.923,1,6,0.100,28249.000,0.200,25043.000,0.300,4837.000,0.500,1318.000,1.000,892.000,5.000,4.000
"07/02/06","03:13:15","AMMA06",60306.000,"cc",28370.707,6.00,2837.071,1,6,0.100,28274.000,0.200,24895.000,0.300,5008.000,0.500,1226.000,1.000,902.000,5.000,1.000
"07/02/06","03:13:21","AMMA06",60129.000,"cc",28314.359,6.00,2831.436,1,6,0.100,28272.000,0.200,24712.000,0.300,4924.000,0.500,1332.000,1.000,889.000,5.000,0
"07/02/06","03:13:27","AMMA06",59960.000,"cc",28351.041,6.00,2835.104,1,6,0.100,28124.000,0.200,24906.000,0.300,4774.000,0.500,1289.000,1.000,866.000,5.000,1.000
"07/02/06","03:13:33","AMMA06",60316.000,"cc",28298.318,6.00,2829.832,1,6,0.100,28526.000,0.200,24857.000,0.300,4814.000,0.500,1237.000,1.000,881.000,5.000,1.000
"07/02/06","03:13:39","AMMA06",60052.000,"cc",28336.979,6.00,2833.698,1,6,0.100,28282.000,0.200,24736.000,0.300,4835.000,0.500,1313.000,1.000,885.000,5.000,1.000
"07/02/06","03:13:45","AMMA06",59887.000,"cc",28256.988,6.00,2825.699,1,6,0.100,28467.000,0.200,24658.000,0.300,4738.000,0.500,1207.000,1.000,816.000,5.000,1.000
"07/02/06","03:13:51","AMMA06",60317.000,"cc",28313.338,6.00,2831.334,1,6,0.100,28618.000,0.200,24767.000,0.300,4756.000,0.500,1306.000,1.000,870.000,5.000,0
"07/02/06","03:13:57","AMMA06",60633.000,"cc",28285.582,6.00,2828.558,1,6,0.100,28475.000,0.200,25220.000,0.300,4791.000,0.500,1271.000,1.000,875.000,5.000,1.000